{"data":{"norad_id":61858,"intl_designator":"2024-202P","name":"STARLINK-32556","alt_names":[],"object_type":"PAYLOAD","status":"ACTIVE","operator":null,"country":"US","launch_date":"2024-11-07","launch_site_code":"AFETR","launch_vehicle":null,"mission":null,"orbit_class":"UNKNOWN","rcs_meters":null,"size_class":null,"mass_kg":null,"dimensions":null,"purposes":["comms"],"wikipedia_slug":null,"has_3d_model":false,"image_url":null,"decayed_at":null,"tle_current":{"epoch":"2026-09-21T07:03:52.322112Z","epoch_age_seconds":119934,"freshness":"FRESH","line1":"1 61858U 24202P   26264.29435558 -.00000002  00000+0  94409-5 0  9992","line2":"2 61858  43.0003 213.2458 0000773 272.0112  88.0651 15.27574831105251","mean_motion":15.27574831,"eccentricity":7.73e-5,"inclination_deg":43.0003,"raan_deg":213.2458,"arg_perigee_deg":272.0112,"mean_anomaly_deg":88.0651,"bstar":9.4409e-6,"rev_number":10525,"period_min":94.267067693,"perigee_km":482.53420304717,"apogee_km":483.5949448105,"semimajor_km":6861.2015739288,"source":"CELESTRAK","updated_at":"2026-09-22T09:00:49.442323Z"}}}